Вернуться в каталог

WILDFIRE 9

АктивенНаукаPO
NORAD 57765·PAYLOAD·🇺🇸 United States

Запущен Sep 2, 2023 с Vandenberg Space Force Base

Loading…

Ближайшие Пролёты (ближайшие 24 часа)

TLE

СвежийSource: Space-Track

Эпоха: Sep 13, 2026, 19:39 UTC

1 57765U 23133J   26256.81880342  .00000010  00000-0 -13743-5 0  9992
2 57765  81.0008 282.9097 0006989 129.4716 230.7060 13.85439862153295

Отслеживайте WILDFIRE 9 в реальном времени с AllMySat

Download on the App Store